| time (UTC) | temp F | wind direction | speed knots | gust knots | rain 1hr in | rain 24hr in | rain mn in | humidity % | barometer mb |
| 20260505041418 | 64 | 181 | 0.0 | 0.0 | 0.00 | 0.00 | 0.00 | 61 | 1004.3 |
| 20260505040412 | 64 | 181 | 0.0 | 0.0 | 0.00 | 0.00 | 0.00 | 61 | 1004.3 |
| 20260505035351 | 64 | 186 | 0.0 | 0.0 | 0.00 | 0.00 | 0.00 | 61 | 1004.3 |
| 20260505034317 | 64 | 182 | 0.0 | 0.0 | 0.00 | 0.00 | 0.00 | 62 | 1004.3 |
| 20260505033331 | 64 | 188 | 0.0 | 0.0 | 0.00 | 0.00 | 0.00 | 62 | 1004.3 |
| 20260505032345 | 64 | 176 | 0.0 | 0.0 | 0.00 | 0.00 | 0.00 | 63 | 1004.3 |
| 20260505031339 | 65 | 171 | 0.0 | 0.0 | 0.00 | 0.00 | 0.00 | 61 | 1004.3 |
| 20260505030359 | 65 | 171 | 0.0 | 0.0 | 0.00 | 0.00 | 0.00 | 61 | 1004.3 |
| 20260505025414 | 65 | 178 | 0.0 | 0.0 | 0.00 | 0.00 | 0.00 | 61 | 1004.4 |
| 20260505024434 | 65 | 178 | 0.0 | 0.0 | 0.00 | 0.00 | 0.00 | 61 | 1004.4 |
| 20260505022331 | 66 | 174 | 0.0 | 0.0 | 0.00 | 0.00 | 0.00 | 61 | 1004.4 |
| 20260505021332 | 66 | 175 | 0.0 | 0.0 | 0.00 | 0.00 | 0.00 | 61 | 1004.4 |
| 20260505020340 | 66 | 179 | 0.0 | 0.0 | 0.00 | 0.00 | 0.00 | 61 | 1004.4 |
| 20260505015312 | 66 | 181 | 0.0 | 0.0 | 0.00 | 0.00 | 0.00 | 61 | 1004.0 |
| 20260505014310 | 66 | 198 | 0.0 | 0.0 | 0.00 | 0.00 | 0.00 | 60 | 1004.1 |
| 20260505013305 | 66 | 198 | 0.0 | 0.0 | 0.00 | 0.00 | 0.00 | 60 | 1004.1 |
| 20260505012308 | 66 | 176 | 0.0 | 0.0 | 0.00 | 0.00 | 0.00 | 60 | 1004.0 |
| 20260505011313 | 66 | 174 | 0.0 | 0.0 | 0.00 | 0.00 | 0.00 | 60 | 1003.9 |
| 20260505005146 | 67 | 178 | 0.0 | 0.0 | 0.00 | 0.00 | 0.00 | 58 | 1003.8 |
| 20260505004211 | 67 | 182 | 0.0 | 0.0 | 0.00 | 0.00 | 0.00 | 58 | 1003.9 |
| 20260505003147 | 67 | 178 | 0.0 | 0.0 | 0.00 | 0.00 | 0.00 | 58 | 1003.9 |
| 20260505002142 | 67 | 176 | 0.0 | 0.0 | 0.00 | 0.00 | 0.00 | 55 | 1003.7 |
| 20260505001155 | 67 | 175 | 0.0 | 0.0 | 0.00 | 0.00 | 0.00 | 55 | 1003.6 |
| 20260504235038 | 68 | 181 | 0.0 | 0.0 | 0.00 | 0.00 | 0.00 | 53 | 1003.6 |
| 20260504234011 | 68 | 174 | 0.9 | 9.6 | 0.00 | 0.00 | 0.00 | 51 | 1003.7 |
| 20260504232939 | 69 | 188 | 0.9 | 9.6 | 0.00 | 0.00 | 0.00 | 50 | 1003.7 |
| 20260504230752 | 70 | 229 | 0.0 | 3.5 | 0.00 | 0.00 | 0.00 | 48 | 1003.5 |
| 20260504223508 | 71 | 172 | 0.9 | 4.3 | 0.00 | 0.00 | 0.00 | 45 | 1003.3 |
| 20260504222506 | 72 | 171 | 0.0 | 3.5 | 0.00 | 0.00 | 0.00 | 45 | 1003.3 |
| 20260504220314 | 72 | 199 | 1.7 | 6.1 | 0.00 | 0.00 | 0.00 | 44 | 1003.4 |
| 20260504215253 | 72 | 195 | 1.7 | 5.2 | 0.00 | 0.00 | 0.00 | 43 | 1003.4 |
| 20260504214249 | 73 | 171 | 0.9 | 5.2 | 0.00 | 0.00 | 0.00 | 43 | 1003.4 |
| 20260504213304 | 74 | 178 | 0.9 | 0.9 | 0.00 | 0.00 | 0.00 | 38 | 1003.4 |
| 20260504212323 | 75 | 192 | 0.0 | 3.5 | 0.00 | 0.00 | 0.00 | 38 | 1003.5 |
| 20260504211307 | 74 | 145 | 0.9 | 6.1 | 0.00 | 0.00 | 0.00 | 38 | 1003.4 |
| 20260504210320 | 74 | 229 | 0.9 | 6.1 | 0.00 | 0.00 | 0.00 | 37 | 1003.4 |
| 20260504205339 | 74 | 267 | 0.0 | 4.3 | 0.00 | 0.00 | 0.00 | 37 | 1003.6 |
| 20260504203243 | 74 | 220 | 0.0 | 5.2 | 0.00 | 0.00 | 0.00 | 38 | 1003.6 |
| 20260504202222 | 74 | 178 | 0.0 | 0.9 | 0.00 | 0.00 | 0.00 | 38 | 1003.9 |
| 20260504201218 | 74 | 237 | 0.0 | 6.1 | 0.00 | 0.00 | 0.00 | 39 | 1004.0 |
| 20260504200230 | 73 | 182 | 0.9 | 6.1 | 0.00 | 0.00 | 0.00 | 38 | 1004.0 |
| 20260504195207 | 74 | 172 | 0.0 | 0.0 | 0.00 | 0.00 | 0.00 | 38 | 1004.4 |
| 20260504194141 | 73 | 240 | 0.9 | 3.5 | 0.00 | 0.00 | 0.00 | 37 | 1004.6 |
| 20260504193156 | 74 | 199 | 0.0 | 1.7 | 0.00 | 0.00 | 0.00 | 36 | 1004.6 |
| 20260504192217 | 73 | 230 | 0.0 | 0.9 | 0.00 | 0.00 | 0.00 | 38 | 1004.9 |
| 20260504191213 | 72 | 241 | 0.9 | 6.1 | 0.00 | 0.00 | 0.00 | 37 | 1005.2 |
| 20260504185051 | 72 | 241 | 0.9 | 5.2 | 0.00 | 0.00 | 0.00 | 37 | 1005.4 |
| 20260504182855 | 71 | 181 | 0.0 | 4.3 | 0.00 | 0.00 | 0.00 | 41 | 1005.6 |
| 20260504180658 | 71 | 186 | 0.0 | 4.3 | 0.00 | 0.00 | 0.00 | 39 | 1005.9 |
| 20260504175636 | 71 | 178 | 0.0 | 5.2 | 0.00 | 0.00 | 0.00 | 37 | 1005.9 |
| 20260504174619 | 71 | 227 | 0.0 | 7.8 | 0.00 | 0.00 | 0.00 | 40 | 1005.9 |
| 20260504173612 | 71 | 239 | 0.0 | 3.5 | 0.00 | 0.00 | 0.00 | 40 | 1006.2 |
| 20260504172545 | 71 | 227 | 0.0 | 0.9 | 0.00 | 0.00 | 0.00 | 38 | 1006.3 |
| 20260504171534 | 70 | 164 | 0.0 | 0.0 | 0.00 | 0.00 | 0.00 | 38 | 1006.3 |
| 20260504160106 | 68 | 175 | 0.0 | 5.2 | 0.00 | 0.00 | 0.00 | 41 | 1007.4 |
| 20260504150126 | 65 | 174 | 0.0 | 0.9 | 0.00 | 0.00 | 0.00 | 49 | 1007.8 |
| 20260504140946 | 61 | 219 | 0.0 | 2.6 | 0.00 | 0.00 | 0.00 | 56 | 1008.1 |
| 20260504130706 | 56 | 251 | 0.0 | 0.9 | 0.00 | 0.00 | 0.00 | 62 | 1008.4 |
| 20260504081850 | 50 | 234 | 0.0 | 0.0 | 0.00 | 0.00 | 0.00 | 70 | 1009.2 |
| 20260504080906 | 49 | 234 | 0.0 | 0.0 | 0.00 | 0.00 | 0.00 | 70 | 1009.3 |